Flag for Canada Weather past 2 weeks in Cranbrook, British Columbia, Canada

Now
75 °F

Passing clouds.


Feels Like: 78 °F
Forecast: 54 / 80 °F
Wind: 8 mph from Southwest

Location: Cranbrook

Current Time: Aug 27, 2014 at 10:01:41 PM

Latest Report: Aug 27, 2014 at 9:00 PM


Visibility: 25 mi

Pressure: 29.91 "Hg

Humidity: 41%

Dew point: 50 °F

Location of CranbrookLocation

Historic Weather in Cranbrook — Graph

°F

Cranbrook temperature yesterday

Maximum temperature yesterday: 82 °F (at 5:00 PM)
Minimum temperature yesterday: 50 °F (at 6:00 AM)
Average temperature yesterday: 65 °F

Past Weeks' High & Low Weather Summary

 TemperatureHumidityPressure
High88 °F (Aug 13, 4:00 PM)100% (Aug 15, 3:00 AM)30.25 "Hg (Aug 15, 3:00 AM)
Low43 °F (Aug 24, 6:00 AM)18% (Aug 13, 5:00 PM)29.71 "Hg (Aug 19, 3:00 PM)
Average63 °F68%30.01 "Hg
* Reported Aug 12 9:00 PM — Aug 27 9:00 PM, Cranbrook, Weather by CustomWeather, © 2014

Note: Actual official high and low records may vary slightly from our data, if they occured in-between our weather recording intervals... More about our weather records

Advertising

Cranbrook weather history for previous 24 hours

 ConditionsComfort  
Time TempWeatherWind HumidityBarometerVisibility
9:00 PM
Aug 27
75 °FPassing clouds.8 mph41%29.91 "Hg25 mi
8:00 PM79 °FScattered clouds.10 mph37%29.91 "Hg25 mi
7:00 PM82 °FScattered clouds.12 mph28%29.91 "Hg25 mi
6:00 PM84 °FBroken clouds.6 mph29%29.91 "Hg25 mi
5:00 PM84 °FBroken clouds.8 mph31%29.92 "Hg25 mi
4:00 PM82 °FBroken clouds.6 mph32%29.93 "Hg25 mi
3:00 PM79 °FBroken clouds.5 mph37%29.96 "Hg25 mi
2:00 PM79 °FScattered clouds.5 mph37%29.97 "Hg25 mi
1:00 PM79 °FScattered clouds.8 mph37%29.98 "Hg25 mi
11:00 AM70 °FPassing clouds.5 mph50%30.04 "Hg25 mi
10:00 AM64 °FPassing clouds.2 mph60%30.06 "Hg25 mi
9:00 AM59 °FPassing clouds.2 mph68%30.07 "Hg25 mi
8:00 AM55 °FSunny.5 mph77%30.06 "Hg25 mi
7:00 AM52 °FPassing clouds.3 mph88%30.05 "Hg25 mi
6:00 AM52 °FPassing clouds.2 mph82%30.03 "Hg25 mi
5:00 AM55 °FPassing clouds.3 mph77%30.02 "Hg25 mi
4:00 AM55 °FPassing clouds.3 mph77%30.01 "Hg25 mi
3:00 AM57 °FClear.3 mph72%30.01 "Hg25 mi
2:00 AM61 °FClear.6 mph63%30.01 "Hg25 mi
1:00 AM63 °FClear.3 mph59%30.01 "Hg25 mi
12:00 AM64 °FPassing clouds.No wind56%30.01 "Hg25 mi
11:00 PM
Aug 26
64 °FPassing clouds.3 mph56%30.01 "Hg25 mi
10:00 PM68 °FPassing clouds.8 mph53%30.00 "Hg25 mi
Weather by CustomWeather, © 2014

See weather overviewHow to use our weather pages